Regional Weather Roundup
Issued by NWS

Home | Current Version | Previous Version | Graphics & Text | Print | Product List | Glossary On
Versions: 1 2 3 4 5 6 7 8 9 10 11 12 13 14 15 16 17 18 19 20 21 22 23 24 25 26 27 28 29 30 31 32 33 34 35 36 37 38 39 40 41 42 43 44 45 46 47 48 49 50
304
ASUS43 KOAX 061510
RWRNE

WEATHER ROUNDUP FOR NEBRASKA
NATIONAL WEATHER SERVICE OMAHA NE
900 AM CST SAT FEB 06 2016

NOTES: SATELLITE DATA IS BEING USED TO AUGMENT CLOUD COVER ABOVE
       12000 FEET.
       "FAIR" INDICATES FEW OR NO CLOUDS BELOW 12,000 FEET WITH NO
       SIGNIFICANT WEATHER AND/OR OBSTRUCTIONS TO VISIBILITY.

  * THESE STATIONS DO NOT REPORT WEATHER SUCH AS RAIN...SNOW OR FOG.

NEZ001>004-019>022-054>056-061600-
NEBRASKA PANHANDLE

CITY           SKY/WX    TMP DP  RH WIND       PRES   REMARKS
SCOTTSBLUFF    CLOUDY    27  17  66 CALM      30.16S
ALLIANCE       CLOUDY    24  17  74 W17       30.11S WCI  11
CHADRON        CLOUDY    24  17  74 SW10      30.12F WCI  14
KIMBALL        CLOUDY    28  17  63 W12       30.16F WCI  18
SIDNEY         CLOUDY    25  15  66 W18       30.16F WCI  11
$$

NEZ057>060-069>072-079>082-061600-
SOUTHWEST NEBRASKA

CITY           SKY/WX    TMP DP  RH WIND       PRES   REMARKS
NORTH PLATTE   SUNNY     16   9  74 NW5       30.18S WCI   9
IMPERIAL         N/A     18   8  65 W13       30.20R WCI   5
LEXINGTON      CLOUDY   N/A N/A N/A CALM      30.21R
MCCOOK         CLOUDY    16   9  74 W10       30.23F WCI   4
OGALLALA       CLOUDY    15   7  71 W10       30.18S WCI   2
$$

NEZ005>010-023>029-035>040-094-061600-
NORTH CENTRAL NEBRASKA

CITY           SKY/WX    TMP DP  RH WIND       PRES   REMARKS
VALENTINE      CLOUDY    27  19  72 W13       30.07S WCI  16
AINSWORTH      CLOUDY    29  19  68 SW14      30.07F WCI  18
BROKEN BOW     CLOUDY    19  13  77 CALM      30.15S
O`NEILL        CLOUDY    24  17  75 SW10      30.10F WCI  13
ORD            CLOUDY    19  15  84 CALM      30.15F
THEDFORD       CLOUDY    29  21  73 W8        30.11F WCI  21
$$

NEZ041-046>049-061>064-073>077-083>087-061600-
SOUTH CENTRAL NEBRASKA

CITY           SKY/WX    TMP DP  RH WIND       PRES   REMARKS
GRAND ISLAND   CLOUDY    21  15  78 SW12      30.20F WCI   9
AURORA         CLOUDY    19  18  96 SW9       30.20F WCI   8
HASTINGS       CLOUDY    18  12  77 SW8       30.21F WCI   8
HEBRON         CLOUDY    20  19  95 W6        30.28S WCI  13
HOLDREGE       CLOUDY    19  13  77 SW6       30.22R WCI  11
KEARNEY *      CLOUDY    18 -27  12 SW9       30.20S WCI   6
YORK           FLURRIES  19  18  93 SW10      30.22F WCI   8
$$

NEZ011>018-030>034-042>045-061600-
NORTHEAST NEBRASKA

CITY           SKY/WX    TMP DP  RH WIND       PRES   REMARKS
NORFOLK        CLOUDY    21  16  81 SW3       30.15F
ALBION         CLOUDY    24  19  83 CALM      30.16F
BLAIR          FOG       21  19  94 S5        30.21F VSB<1/4 WCI  14
COLUMBUS *     CLOUDY    23  16  74 SW6       30.20F WCI  16
FREMONT        CLOUDY    15  14  93 CALM      30.22F
TEKAMAH        FOG       16  13  88 S8        30.22F VSB 3/4 WCI   5
WAYNE          CLOUDY    21  19  93 S7        30.15F WCI  13
$$

NEZ050>053-065>068-078-088>093-061600-
SOUTHEAST NEBRASKA

CITY           SKY/WX    TMP DP  RH WIND       PRES   REMARKS
LINCOLN        CLOUDY    20  18  92 S5        30.27F WCI  13
OMAHA EPPLEY   FOG       22  22 100 SE8       30.24F VSB 1/2 WCI  12
BEATRICE       SUNNY     24  23  96 SW3       30.27F
FALLS CITY     SUNNY     32  29  88 SW5       30.29R WCI  27
NEBRASKA CITY  SUNNY     27  27 100 W8        30.26F WCI  19
PLATTSMOUTH    SUNNY     26  25  96 SW5       30.25S FOG     WCI  21
$$

NEZ044-045-051>053-067-061600-
OMAHA AREA

CITY           SKY/WX    TMP DP  RH WIND       PRES   REMARKS
OMAHA EPPLEY   FOG       22  22 100 SE8       30.24F VSB 1/2 WCI  12
BLAIR          FOG       21  19  94 S5        30.21F VSB<1/4 WCI  14
FREMONT        CLOUDY    15  14  93 CALM      30.22F
MILLARD        FOG       21  19  92 CALM      30.25F VSB 1/4
OFFUTT AFB     SUNNY     19  18  93 S5        30.24F FOG     WCI  13
PLATTSMOUTH    SUNNY     26  25  96 SW5       30.25S FOG     WCI  21
WAHOO          FAIR     N/A N/A N/A SW5       30.23F FOG
$$




USA.gov is the U.S. government's official web portal to all federal, state and local government web resources and services.